Location: Montr�al
(45.5000°N, 73.5830°W)
Time: 07:50:04
(UTC-04:00)

Cosmos 1151 Rocket - Visible Passes

Search period start: 24 May 2016 00:00
Search period end: 03 June 2016 00:00
Orbit: 593 x 617 km, 82.5° (Epoch: 23 May)

Date Brightness Start Highest point End Pass type
(mag) Time Alt. Az. Time Alt. Az. Time Alt. Az.
24 May 4.8 00:58:02 10° NNE 01:01:26 22° ENE 01:02:39 20° E visible
24 May 3.8 02:35:12 10° NNW 02:39:05 34° W 02:39:29 33° WSW visible
25 May 4.1 01:10:29 10° N 01:14:27 35° ENE 01:15:17 32° E visible
25 May 4.5 02:48:32 10° NW 02:51:47 21° W 02:52:08 21° W visible
26 May 3.3 01:23:09 10° N 01:27:23 58° ENE 01:27:57 53° ESE visible
26 May 5.1 03:02:24 10° NW 03:04:26 13° W 03:04:47 13° W visible
27 May 5.6 00:01:42 10° ENE 00:02:02 10° ENE 00:02:23 10° ENE visible
27 May 2.8 01:35:58 10° N 01:40:16 84° W 01:40:37 74° SSW visible
28 May 5.2 00:12:30 10° NNE 00:15:11 16° ENE 00:16:27 14° E visible
28 May 3.3 01:48:56 10° NNW 01:53:05 50° W 01:53:18 49° WSW visible
29 May 4.6 00:24:42 10° NNE 00:28:15 25° ENE 00:29:09 23° E visible
29 May 4.1 02:02:05 10° NNW 02:05:50 30° W 02:06:00 30° W visible
30 May 3.8 00:37:13 10° N 00:41:15 39° ENE 00:41:52 37° E visible
30 May 4.7 02:15:30 10° NW 02:18:31 19° W 02:18:43 19° W visible
31 May 3.0 00:49:55 10° N 00:54:11 66° E 00:54:35 61° ESE visible
31 May 5.3 02:29:39 10° WNW 02:31:08 12° W 02:31:26 12° W visible
31 May 5.4 23:27:29 10° NE 23:28:54 11° ENE 23:30:19 10° E visible
01 Jun 2.8 01:02:46 10° NNW 01:07:02 74° W 01:07:19 71° SW visible
01 Jun 4.9 23:39:05 10° NNE 23:42:01 18° ENE 23:43:13 16° E visible
02 Jun 3.5 01:15:46 10° NNW 01:19:50 44° W 01:20:04 43° WSW visible
02 Jun 4.3 23:51:23 10° NNE 23:55:04 28° ENE 23:55:58 26° E visible
